SCP
0 0 0 0 0 0 0 0 0 0 0 0 0 0 0 0 0 0 0 0 0 0 0 0 0 0 0 0 0 0 0 0 0 0 0 0 0 0 0 0 0 0 0 0 0 0 0 0 0 0 0 0 0 0
0 0 0 0 0 0 0 0 0 0 0 0 0 0 0 0 0 0 0 0 0 0 0 0 0 0 0 0 0 0 0 0 0 0 0 0 0 0 0 0 0 0 0 0 0 0 0 0 0 0 0 0 0 0
0 0 0 0 0 0 0 0 0 0 0 0 0 0 0 0 0 0 0 0 0 0 0 0 0 0 0 0 0 0 0 0 0 0 0 0 0 0 0 0 0 0 0 0 0 0 0 0 -0 0 0 0 0 0
0 0 0 0 0 0 0 0 0 0 0 0 0 0 0 0 0 0 0 0 0 0 1 0 0 0 0 0 0 0 0 0 0 0 0 0 0 0 0 0 0 0 0 0 0 0 0 0 0 0 0 0 0 0
0 0 0 0 0 0 0 0 0 0 0 0 0 0 0 0 0 0 0 0 0 0 0 0 0 0 0 0 0 0 0 0 0 0 0 0 0 0 0 0 0 0 0 0 0 0 0 0 0 0 0 0 0 0
0 0 0 0 0 0 0 0 0 0 0 0 0 0 0 0 0 0 0 0 0 0 0 0 0 0 0 0 0 0 0 0 0 0 0 0 0 0 0 0 0 0 0 0 0 0 0 0 0 0 0 0 0 0
0 0 0 0 0 0 0 0 0 0 0 0 0 0 0 0 0 0 0 0 0 0 0 0 0 0 0 0 0 0 0 0 0 0 0 0 0 0 0 0 0 0 0 0 0 0 0 0 0 0 0 0 0 0
0 0 0 0 0 0 0 0 0 0 0 -0 0 0 0 0 0 0 0 0 0 0 0 0 0 0 0 0 0 0 0 0 0 0 0 0 0 0 0 0 0 0 0 0 -0 0 0 0 0 0 0 0 0 0
0 0 0 0 0 0 0 0 0 0 0 0 -0 0 0 0 0 0 0 0 0 0 0 0 0 0 0 0 0 0 0 0 0 0 0 0 0 0 0 0 0 0 0 0 0 0 0 0 0 0 0 0 0 0
0 0 0 0 0 0 0 0 0 0 0 0 0 0 0 0 0 0 0 0 0 0 0 0 0 0 0 0 0 0 0 0 0 0 0 0 0 0 0 0 0 0 0 0 0 0 0 0 0 0 0 0 0 0
0 0 0 0 0 0 0 0 0 0 0 0 0 0 0 0 0 0 0 0 0 0 0 0 0 0 0 0 0 0 0 0 0 0 0 0 0 0 0 0 0 0 0 0 0 0 0 0 0 0 0 0 0 0
0 0 0 0 0 0 0 0 0 0 0 0 0 0 0 0 0 0 0 0 0 0 0 0 0 0 0 0 0 0 0 0 0 0 0 0 0 0 0 0 0 0 0 0 0 0 0 0 0 0 0 0 0 0
0 0 0 0 0 0 0 0 0 0 0 0 0 0 0 0 0 0 0 0 0 0 0 0 0 0 0 0 0 0 0 0 0 0 0 0 0 0 0 0 0 0 0 0 0 0 0 0 0 0 0 0 0 0
0 0 0 0 0 0 0 0 0 0 0 0 0 0 0 0 0 0 0 0 0 0 0 0 0 0 0 0 0 0 0 0 0 0 0 0 0 0 0 0 0 0 0 0 0 0 0 0 0 0 0 0 0 0
0 0 0 0 0 0 0 0 0 0 0 0 0 0 0 0 0 0 0 0 0 0 0 0 0 0 0 0 0 0 0 0 0 0 0 0 0 0 0 0 0 0 0 0 0 0 0 0 0 0 0 0 0 0
0 0 0 0 0 0 0 0 0 0 0 0 0 0 0 0 0 0 0 0 0 0 0 0 0 0 0 0 0 0 0 0 0 0 0 0 0 0 0 0 0 0 0 0 0 0 0 0 0 0 0 0 0 0
0 0 0 0 0 0 0 0 0 0 0 0 0 0 0 0 0 0 0 0 0 0 0 0 0 0 0 0 0 0 0 0 0 0 0 0 0 0 0 0 0 0 0 0 0 0 0 0 0 0 0 0 0 0
-0 -0 0 0 0 0 0 0 0 0 0 0 0 0 0 0 0 0 0 0 0 0 -0 0 0 0 0 0 0 0 0 0 0 0 0 0 0 0 0 0 0 0 0 0 0 0 0 0 0 0 0 0 0 0
0 -0 0 -0 0 0 0 0 0 0 0 0 0 0 0 0 0 0 0 0 0 0 0 0 -0 -0 0 0 0 0 -0 0 0 0 -0 0 0 0 0 0 0 0 0 0 0 0 0 0 0 0 0 0 0 0
-0 -0 -0 -0 0 0 0 0 0 0 0 0 0 0 0 0 0 0 0 0 0 0 0 0 0 -0 -0 -0 0 0 -0 -0 0 -0 -0 -0 -0 0 0 0 0 0 0 0 0 0 0 0 0 0 0 0 0 0
0 0 0 0 0 0 0 0 0 0 0 0 0 0 0 0 0 0 0 0 0 0 0 0 0 0 0 0 0 0 -0 -0 -0 0 0 -0 -0 -0 -0 0 0 -0 0 0 0 0 0 0 0 0 0 0 0 0
0 0 0 0 0 0 0 0 0 0 0 0 0 0 0 0 0 0 0 0 0 0 0 0 0 0 0 0 0 0 0 0 0 -0 -0 -0 -0 -0 -0 0 0 0 0 0 0 0 0 0 0 0 0 0 0 0
-0 -0 0 0 -0 0 0 0 0 0 0 0 0 0 0 0 0 0 0 0 0 0 0 0 0 0 0 0 0 0 0 0 0 0 -0 -0 -0 -0 0 0 0 0 0 0 0 0 0 0 0 0 0 0 0 0
-0 -0 0 -0 0 -0 0 0 0 0 0 0 0 0 0 0 0 0 0 0 0 0 0 0 0 0 0 0 -0 0 0 0 0 0 -0 0 0 0 0 0 0 0 0 0 0 0 0 0 0 0 0 0 0 0
0 0 -0 -0 0 -0 -0 -0 0 0 0 0 0 0 0 0 0 0 0 0 0 0 0 0 0 0 0 0 -0 -0 -0 -0 0 -0 0 0 0 0 0 0 0 0 0 0 0 0 0 0 0 0 0 0 0 0
-0 -0 -0 -0 -0 -0 0 -0 -0 -0 -0 -0 -0 0 0 0 0 0 0 0 0 0 0 0 0 0 0 0 -0 0 0 0 0 -0 0 0 0 0 0 0 0 0 0 0 0 0 0 0 0 0 0 0 0 0
0 -0 -0 0 -0 -0 -0 -0 -0 -0 -0 -0 -0 -0 -0 -0 0 0 0 0 -0 0 0 0 -0 -0 -0 0 0 0 0 0 0 0 0 0 0 0 0 0 0 0 0 0 0 0 0 0 0 0 0 0 0 0
0 0 -0 -0 -0 -0 -0 -0 -0 0 -0 -0 -0 0 -0 0 0 -0 -0 -0 -0 0 0 0 -0 -0 -0 -0 0 0 0 0 0 0 0 0 0 0 0 0 0 0 0 0 0 0 0 0 0 0 0 0 0 0
0 0 0 -0 -0 -0 -0 -0 0 0 0 -0 -0 -0 -0 -0 -0 -0 -0 -0 0 0 0 0 -0 -0 -0 -0 0 0 -0 0 0 0 0 0 0 0 0 0 0 0 0 0 0 0 0 0 0 0 0 0 0 0
0 0 0 0 0 0 -0 -0 -0 -0 -0 -0 -0 -0 -0 -0 -0 -0 0 0 0 -0 -0 -0 0 0 -0 -0 0 0 0 0 -0 0 0 0 0 0 0 0 0 0 0 0 0 0 0 0 0 0 0 0 0 0
0 0 0 0 0 0 0 0 0 0 0 0 0 0 0 0 0 0 0 0 0 0 0 0 0 0 0 0 0 0 0 0 0 0 0 0 0 0 0 0 0 0 0 0 0 0 0 0 0 0 0 0 0 0
0 0 0 0 0 0 0 0 0 0 0 0 0 0 0 0 0 0 0 0 0 0 0 0 0 0 -0 -0 -0 -0 -0 0 0 0 0 0 0 0 0 0 0 0 0 0 0 0 0 0 0 0 0 0 0 0
0 0 0 0 0 0 0 0 0 0 0 0 0 0 0 0 0 0 0 0 0 0 0 0 0 0 0 0 0 -0 -0 -0 -0 -0 -0 -0 0 -0 -0 -0 -0 0 0 0 0 -0 -0 0 0 0 0 0 0 0
Wind_Speed_500mb
37 36 36 33 33 38 38 37 40 50 56 57 60 49 41 50 60 67 104 62 95 50 32 73 75 55 38 47 15 33 16 8 6 8 8 8 7 15 7 10 15 16 17 9 6 4 18 29 15 14 7 10 15 16
31 31 32 31 32 33 38 38 32 26 41 56 58 64 58 53 57 56 49 91 87 51 16 69 83 78 97 104 72 72 18 35 35 7 3 7 6 5 8 8 5 9 15 13 21 15 7 63 19 39 11 11 14 14
28 29 28 27 30 32 33 41 29 20 31 39 48 53 47 56 48 63 65 44 71 59 27 39 70 77 73 80 89 40 23 37 31 21 22 6 9 9 11 12 5 9 18 6 5 9 40 42 62 40 27 40 26 22
35 30 28 29 31 31 30 40 46 14 36 41 40 51 54 66 43 54 62 60 72 17 13 15 56 64 78 72 77 78 47 53 39 32 11 6 7 26 9 7 7 10 32 13 12 23 32 40 51 65 63 61 52 44
38 36 34 34 33 33 33 34 38 14 26 33 36 45 49 67 53 48 59 61 63 47 12 11 40 54 68 79 78 76 68 72 50 19 5 7 14 11 4 5 5 25 14 12 14 27 19 12 2 19 35 46 31 30
40 41 39 35 35 36 33 35 39 19 29 25 37 21 40 55 55 48 20 54 71 48 19 6 13 34 58 68 70 74 69 71 46 21 13 13 18 22 10 10 17 64 43 56 29 38 29 33 22 31 42 40 39 40
42 41 37 37 37 36 35 39 41 25 21 23 23 22 28 51 58 62 19 23 71 58 18 5 5 15 40 52 50 47 59 41 26 28 17 17 17 29 6 11 19 65 70 69 76 64 47 67 47 44 47 39 39 46
43 40 38 40 38 37 36 36 37 27 16 20 31 1 5 35 53 53 33 43 57 55 21 7 2 9 37 15 11 32 24 25 23 19 15 11 17 6 12 23 45 35 37 53 61 71 75 72 63 63 78 63 65 61
37 37 38 41 37 34 35 37 34 32 31 21 15 17 5 14 12 22 37 46 58 17 18 9 13 9 32 11 14 16 18 5 17 7 10 23 8 15 14 45 65 79 73 62 61 74 70 77 78 72 79 79 73 64
31 32 37 36 33 32 34 38 39 37 26 17 9 7 2 14 36 28 25 14 22 15 10 4 19 7 29 15 11 15 12 7 7 9 29 8 9 37 38 36 53 58 57 53 82 84 89 99 89 76 79 76 75 69
27 30 34 32 30 31 30 30 40 40 43 29 12 5 14 25 10 6 6 6 7 5 14 13 15 12 26 8 7 17 7 8 9 9 13 9 10 25 63 59 55 55 52 62 76 84 87 89 83 84 82 80 74 70
26 30 29 28 31 30 26 31 36 37 31 26 16 22 19 4 6 5 4 3 3 7 10 8 9 9 22 17 8 11 7 6 10 19 9 7 12 23 43 67 78 84 94 94 94 103 104 101 98 96 93 87 79 75
22 25 25 29 33 34 30 27 26 26 33 37 9 7 3 3 6 9 9 1 4 9 15 13 4 9 10 10 6 7 11 10 23 6 7 10 9 29 44 52 55 55 69 82 89 89 81 82 81 76 68 62 59 59
22 22 23 31 34 34 33 30 28 30 23 6 4 5 8 4 5 5 5 6 2 2 21 20 11 8 9 4 4 7 3 7 8 10 12 7 30 43 33 39 49 51 60 62 58 61 63 66 61 51 45 45 49 45
14 11 16 27 35 32 31 31 31 30 8 6 7 4 3 4 6 3 1 4 6 7 14 7 5 9 1 3 3 6 3 6 7 10 2 39 52 38 16 32 45 55 54 55 56 59 51 43 40 39 41 42 40 41
19 20 23 25 29 30 31 34 39 21 7 5 6 5 4 6 3 4 7 10 13 9 7 3 2 3 8 7 7 9 8 0 7 6 42 56 51 36 29 23 20 28 36 44 45 42 36 35 38 38 40 42 43 43
26 40 35 35 33 29 32 34 11 8 3 4 4 13 23 7 25 19 13 7 9 8 3 4 4 5 7 3 4 8 5 5 13 26 28 36 48 47 34 26 21 22 23 28 33 36 35 39 40 40 40 40 40 36
47 49 41 41 39 37 25 14 11 10 4 6 6 12 27 3 6 12 13 19 12 6 17 8 5 7 4 3 5 6 18 20 19 19 32 36 35 35 39 33 24 21 20 18 22 25 29 35 37 35 33 32 34 30
62 49 50 55 57 20 8 8 7 6 1 2 6 10 17 11 11 2 14 20 14 7 10 11 7 5 5 9 5 8 11 13 17 31 31 24 32 33 33 33 29 24 19 15 15 17 20 24 27 29 26 26 26 26
53 56 65 56 51 10 8 4 14 7 5 6 6 10 7 5 17 18 18 17 15 9 4 2 2 2 1 7 8 17 22 25 31 40 25 15 26 28 28 29 28 22 16 14 12 15 19 22 24 23 20 20 21 23
78 64 57 46 27 15 6 6 7 6 10 7 10 15 11 10 6 6 9 9 6 7 2 4 5 2 6 10 11 15 19 22 20 27 33 39 29 22 18 18 17 14 14 13 11 10 14 18 18 17 17 17 18 19
52 49 42 20 7 7 6 5 7 9 7 8 9 5 6 6 8 4 5 4 9 7 3 3 2 5 8 8 13 17 22 24 24 26 27 32 34 21 13 12 11 9 10 12 11 10 12 14 14 12 13 12 13 17
32 23 12 8 6 4 5 3 5 5 6 1 8 7 6 5 4 4 12 9 5 9 10 7 4 4 2 1 5 11 16 16 17 19 17 14 15 14 14 13 10 6 5 6 7 8 9 11 10 8 8 7 10 13
9 4 9 9 14 1 4 11 7 8 7 7 6 3 3 5 5 9 4 5 6 11 10 9 7 4 3 5 8 9 12 8 7 11 10 8 8 5 6 10 10 7 10 12 10 9 8 8 7 6 4 5 6 7
5 16 11 11 15 10 12 10 11 10 6 5 5 5 6 7 4 4 2 2 7 6 8 3 1 3 4 5 4 5 4 6 6 4 6 5 4 5 8 7 6 15 11 5 3 7 10 9 9 7 5 4 4 5
13 20 11 6 8 8 2 6 6 1 2 6 3 11 8 3 3 4 2 8 10 8 8 4 2 5 2 5 7 6 5 4 9 6 15 17 15 14 14 12 8 9 15 15 14 12 12 11 10 10 9 8 7 6
9 7 10 16 6 5 8 7 6 5 7 6 5 7 5 5 5 3 7 9 11 13 9 4 2 1 2 8 10 9 5 6 10 4 5 7 16 20 18 20 19 17 17 16 14 13 13 15 14 14 14 12 10 8
9 9 6 10 11 12 4 4 5 5 3 5 4 4 3 2 3 6 7 15 14 9 5 4 4 3 3 7 12 9 3 6 10 3 3 6 9 17 16 17 18 18 17 16 12 9 11 13 14 15 15 13 12 10
9 6 6 6 7 11 9 4 2 2 4 1 2 2 3 5 11 11 10 9 5 3 2 2 2 7 5 7 13 14 9 8 7 7 8 10 10 16 18 18 16 15 14 12 10 8 11 12 12 12 11 11 11 11
6 7 6 6 5 2 2 1 2 2 1 3 2 2 4 6 8 8 4 1 2 3 5 8 9 10 9 9 11 13 15 14 11 10 11 13 16 17 18 18 17 17 16 15 13 11 9 7 6 7 8 9 12 14
5 4 7 6 5 4 5 2 2 2 1 1 2 4 5 5 4 8 7 5 4 4 6 8 10 12 11 10 10 12 15 15 14 14 14 16 17 17 19 20 21 20 20 19 17 15 15 13 14 16 16 17 18 18
3 3 7 5 3 9 5 3 3 3 3 4 3 5 5 5 4 1 4 3 5 7 9 9 10 12 12 12 13 15 16 16 15 15 15 15 17 21 22 22 22 22 22 20 20 22 21 20 20 21 22 23 24 24
8 7 6 8 6 6 6 2 2 3 5 5 4 3 4 4 5 3 1 3 7 9 10 11 12 13 14 15 15 16 15 15 16 15 16 18 19 19 20 21 22 24 23 22 24 24 24 24 27 28 28 28 28 28
Wind_Direction_500mb
238 242 245 251 259 274 279 266 235 221 235 236 237 228 218 222 228 244 225 231 205 213 204 206 206 190 167 183 156 155 114 199 136 178 174 189 148 211 130 167 172 164 150 189 92 116 268 161 127 177 219 144 160 182
237 240 243 243 251 265 277 288 236 195 219 223 230 241 252 230 222 240 249 226 214 216 206 215 208 213 218 213 187 168 191 154 170 142 195 118 157 124 157 214 138 216 185 179 192 210 228 183 203 211 170 193 187 197
239 245 246 250 252 261 271 290 239 205 232 232 233 237 245 221 224 232 242 220 208 216 213 206 217 215 212 210 210 174 204 182 184 171 153 164 188 134 164 227 139 239 205 196 91 237 231 231 228 234 240 240 250 253
235 236 249 252 251 258 263 279 248 246 225 235 239 237 231 221 225 212 227 236 210 192 206 207 210 217 216 207 202 206 206 191 189 174 149 154 166 197 190 148 168 182 155 176 268 274 267 262 242 244 247 252 259 265
235 238 242 250 258 255 257 270 251 262 223 234 249 251 234 221 223 214 230 231 225 195 160 187 205 218 215 216 217 214 210 197 173 164 160 202 154 136 91 93 229 194 173 174 217 211 195 207 215 235 244 243 243 267
239 238 242 248 254 254 246 261 236 223 227 233 226 205 216 220 217 219 238 219 218 205 185 187 206 206 208 210 209 208 206 196 191 185 202 201 177 179 165 196 228 207 202 210 232 242 230 262 253 270 265 256 278 277
240 240 239 246 253 251 244 254 238 204 228 244 225 214 216 215 207 201 195 202 205 199 159 157 202 189 198 190 193 188 187 185 189 190 206 171 179 182 144 195 212 206 217 227 237 244 254 258 259 268 275 271 278 276
235 236 238 243 248 248 247 240 232 199 213 217 234 27 175 205 169 183 201 172 177 179 165 159 93 152 172 163 151 175 181 171 180 177 164 168 142 177 239 174 198 216 207 228 245 249 251 256 258 259 269 274 279 274
228 232 232 239 244 239 230 240 213 190 170 158 190 233 188 182 179 151 169 176 187 180 148 142 154 185 166 156 148 161 167 168 177 181 189 163 162 215 194 177 193 216 216 222 233 249 260 264 268 268 269 272 273 276
227 227 234 233 235 230 229 235 180 183 189 179 163 131 225 154 134 153 159 183 183 215 186 145 146 158 167 155 179 143 188 174 179 203 152 208 247 224 212 208 214 223 225 228 231 242 248 254 257 259 261 270 275 281
231 230 225 227 219 216 216 194 174 170 180 166 144 138 156 126 96 92 107 144 166 199 188 181 165 137 183 157 152 201 182 171 184 193 182 194 258 218 220 217 225 230 227 228 243 255 259 261 266 267 269 275 280 281
230 223 217 213 203 194 185 177 178 169 157 155 142 135 158 171 96 105 167 99 182 207 173 140 174 139 159 161 136 178 198 174 216 143 176 202 245 177 199 218 229 234 239 242 246 250 253 257 262 266 273 278 280 282
204 202 203 198 185 179 171 172 174 185 124 124 112 132 138 116 89 168 176 207 162 177 171 156 125 114 134 174 156 168 185 205 124 171 208 230 247 201 219 230 228 228 233 236 241 247 257 260 263 266 272 274 272 272
183 180 185 185 179 172 170 175 176 171 147 91 122 114 150 185 237 193 176 188 203 243 199 160 126 144 166 189 173 180 142 125 203 164 219 247 320 301 231 224 228 232 232 239 248 254 255 255 261 265 267 262 267 275
166 167 161 165 172 166 167 167 172 174 104 128 122 149 197 234 43 45 53 24 62 80 151 127 112 139 104 233 214 100 110 251 218 212 183 345 341 347 302 250 243 235 236 241 246 253 252 252 259 259 256 257 256 259
199 189 187 183 174 173 167 174 168 151 115 132 142 90 151 70 4 23 82 64 56 64 197 275 156 233 212 182 148 211 177 69 342 294 321 333 338 336 330 319 295 267 253 244 243 245 247 250 251 249 250 252 257 266
207 213 198 185 180 176 176 177 134 111 170 216 258 197 193 182 180 179 194 200 206 160 139 67 337 243 302 264 112 15 102 223 259 320 316 325 332 330 327 324 309 292 269 250 247 248 252 250 243 242 246 253 257 255
216 212 194 178 172 176 156 153 137 163 178 173 176 181 202 236 191 203 210 192 210 195 152 162 60 8 334 297 155 190 234 258 291 332 339 327 321 325 322 319 323 313 296 277 259 253 252 253 253 250 245 245 246 242
208 194 178 169 173 133 96 136 139 112 230 249 207 195 192 211 220 174 173 175 179 167 143 153 139 194 204 205 242 218 257 296 323 328 336 337 325 322 325 315 319 320 308 291 272 264 260 257 254 249 243 237 235 234
163 162 154 167 166 126 92 98 162 139 175 183 172 166 146 188 184 179 185 190 183 174 121 115 187 175 356 298 305 310 319 324 330 334 346 344 309 308 318 322 313 315 308 301 287 266 252 250 251 249 243 236 232 233
125 133 148 152 150 73 104 150 153 148 168 180 192 152 129 145 118 152 170 180 163 53 58 79 122 172 285 295 297 299 313 321 332 323 319 321 345 330 311 301 291 297 299 288 270 269 259 260 258 256 249 240 231 231
130 143 134 134 96 130 115 118 136 146 164 139 124 106 92 74 71 83 125 75 58 59 80 100 228 272 276 296 320 322 321 323 327 326 321 326 333 337 323 317 320 345 325 312 311 302 299 296 288 271 259 253 239 231
126 127 120 135 147 81 105 112 136 61 109 267 123 103 24 48 61 130 74 51 45 353 331 313 290 251 188 189 304 319 321 321 321 316 313 309 327 341 351 353 351 332 307 338 342 347 333 323 316 297 283 272 252 248
121 59 34 45 28 28 19 30 48 42 69 38 63 90 341 12 6 56 92 64 35 3 348 345 342 336 272 295 313 310 310 304 306 301 288 254 265 288 349 20 22 10 33 30 5 357 336 338 337 335 304 265 254 252
123 12 17 7 21 35 32 12 1 38 42 333 66 15 341 350 65 59 183 326 3 358 14 55 150 149 179 211 244 254 243 195 182 2 22 352 305 306 307 295 343 20 12 349 343 15 8 347 343 348 340 315 307 289
69 17 37 356 5 59 342 57 30 8 1 36 18 328 335 321 243 253 234 340 348 342 342 341 142 145 94 5 336 261 241 201 160 109 70 59 36 22 7 357 20 20 4 358 5 8 8 6 1 351 345 346 343 322
81 5 43 35 56 81 83 72 53 51 49 34 355 341 329 227 264 294 313 324 333 323 314 293 278 275 18 10 356 325 226 206 189 165 48 33 24 21 7 5 15 5 8 9 354 353 353 355 357 358 353 344 339 343
81 45 70 13 59 45 82 65 39 47 28 355 284 22 3 245 305 325 309 316 321 323 304 278 270 190 115 32 23 33 78 152 169 151 81 13 5 10 1 6 7 359 354 350 351 345 343 346 345 345 345 344 352 357
60 59 73 64 68 52 46 67 38 342 308 352 10 350 309 278 311 316 319 314 318 334 5 357 206 175 159 62 46 49 76 107 122 121 73 46 24 13 16 15 13 11 8 5 355 346 341 337 339 342 350 355 11 19
51 47 91 63 62 51 33 50 31 8 138 183 225 280 312 333 358 1 3 44 140 127 112 92 104 127 130 120 88 83 89 94 100 90 76 51 33 28 30 32 28 25 23 22 23 24 22 14 12 28 39 45 49 48
106 99 96 82 120 130 152 111 97 110 127 183 227 247 270 284 330 25 40 76 115 124 105 96 97 97 104 105 97 90 85 85 85 81 68 52 45 44 40 38 38 39 41 41 40 44 46 46 51 53 56 60 66 69
86 92 127 96 193 190 233 289 271 266 258 263 244 262 274 280 277 280 18 115 129 131 126 123 116 108 110 110 106 99 94 90 83 78 68 61 59 54 47 46 47 50 52 53 57 60 60 61 67 69 70 72 72 72
113 106 101 115 129 178 204 302 232 257 260 266 262 266 260 258 269 189 137 151 145 144 140 140 145 137 126 116 107 100 95 94 93 87 85 77 70 64 60 59 59 61 59 61 69 72 76 78 81 82 82 83 84 83
Wind_Speed_850mb
37 36 36 33 33 38 38 37 40 50 56 57 60 49 41 50 60 67 104 62 95 50 32 73 75 55 38 47 15 33 16 8 6 8 8 8 7 15 7 10 15 16 17 9 6 4 18 29 15 14 7 10 15 16
31 31 32 31 32 33 38 38 32 26 41 56 58 64 58 53 57 56 49 91 87 51 16 69 83 78 97 104 72 72 18 35 35 7 3 7 6 5 8 8 5 9 15 13 21 15 7 63 19 39 11 11 14 14
28 29 28 27 30 32 33 41 29 20 31 39 48 53 47 56 48 63 65 44 71 59 27 39 70 77 73 80 89 40 23 37 31 21 22 6 9 9 11 12 5 9 18 6 5 9 40 42 62 40 27 40 26 22
35 30 28 29 31 31 30 40 46 14 36 41 40 51 54 66 43 54 62 60 72 17 13 15 56 64 78 72 77 78 47 53 39 32 11 6 7 26 9 7 7 10 32 13 12 23 32 40 51 65 63 61 52 44
38 36 34 34 33 33 33 34 38 14 26 33 36 45 49 67 53 48 59 61 63 47 12 11 40 54 68 79 78 76 68 72 50 19 5 7 14 11 4 5 5 25 14 12 14 27 19 12 2 19 35 46 31 30
40 41 39 35 35 36 33 35 39 19 29 25 37 21 40 55 55 48 20 54 71 48 19 6 13 34 58 68 70 74 69 71 46 21 13 13 18 22 10 10 17 64 43 56 29 38 29 33 22 31 42 40 39 40
42 41 37 37 37 36 35 39 41 25 21 23 23 22 28 51 58 62 19 23 71 58 18 5 5 15 40 52 50 47 59 41 26 28 17 17 17 29 6 11 19 65 70 69 76 64 47 67 47 44 47 39 39 46
43 40 38 40 38 37 36 36 37 27 16 20 31 1 5 35 53 53 33 43 57 55 21 7 2 9 37 15 11 32 24 25 23 19 15 11 17 6 12 23 45 35 37 53 61 71 75 72 63 63 78 63 65 61
37 37 38 41 37 34 35 37 34 32 31 21 15 17 5 14 12 22 37 46 58 17 18 9 13 9 32 11 14 16 18 5 17 7 10 23 8 15 14 45 65 79 73 62 61 74 70 77 78 72 79 79 73 64
31 32 37 36 33 32 34 38 39 37 26 17 9 7 2 14 36 28 25 14 22 15 10 4 19 7 29 15 11 15 12 7 7 9 29 8 9 37 38 36 53 58 57 53 82 84 89 99 89 76 79 76 75 69
27 30 34 32 30 31 30 30 40 40 43 29 12 5 14 25 10 6 6 6 7 5 14 13 15 12 26 8 7 17 7 8 9 9 13 9 10 25 63 59 55 55 52 62 76 84 87 89 83 84 82 80 74 70
26 30 29 28 31 30 26 31 36 37 31 26 16 22 19 4 6 5 4 3 3 7 10 8 9 9 22 17 8 11 7 6 10 19 9 7 12 23 43 67 78 84 94 94 94 103 104 101 98 96 93 87 79 75
22 25 25 29 33 34 30 27 26 26 33 37 9 7 3 3 6 9 9 1 4 9 15 13 4 9 10 10 6 7 11 10 23 6 7 10 9 29 44 52 55 55 69 82 89 89 81 82 81 76 68 62 59 59
22 22 23 31 34 34 33 30 28 30 23 6 4 5 8 4 5 5 5 6 2 2 21 20 11 8 9 4 4 7 3 7 8 10 12 7 30 43 33 39 49 51 60 62 58 61 63 66 61 51 45 45 49 45
14 11 16 27 35 32 31 31 31 30 8 6 7 4 3 4 6 3 1 4 6 7 14 7 5 9 1 3 3 6 3 6 7 10 2 39 52 38 16 32 45 55 54 55 56 59 51 43 40 39 41 42 40 41
19 20 23 25 29 30 31 34 39 21 7 5 6 5 4 6 3 4 7 10 13 9 7 3 2 3 8 7 7 9 8 0 7 6 42 56 51 36 29 23 20 28 36 44 45 42 36 35 38 38 40 42 43 43
26 40 35 35 33 29 32 34 11 8 3 4 4 13 23 7 25 19 13 7 9 8 3 4 4 5 7 3 4 8 5 5 13 26 28 36 48 47 34 26 21 22 23 28 33 36 35 39 40 40 40 40 40 36
47 49 41 41 39 37 25 14 11 10 4 6 6 12 27 3 6 12 13 19 12 6 17 8 5 7 4 3 5 6 18 20 19 19 32 36 35 35 39 33 24 21 20 18 22 25 29 35 37 35 33 32 34 30
62 49 50 55 57 20 8 8 7 6 1 2 6 10 17 11 11 2 14 20 14 7 10 11 7 5 5 9 5 8 11 13 17 31 31 24 32 33 33 33 29 24 19 15 15 17 20 24 27 29 26 26 26 26
53 56 65 56 51 10 8 4 14 7 5 6 6 10 7 5 17 18 18 17 15 9 4 2 2 2 1 7 8 17 22 25 31 40 25 15 26 28 28 29 28 22 16 14 12 15 19 22 24 23 20 20 21 23
78 64 57 46 27 15 6 6 7 6 10 7 10 15 11 10 6 6 9 9 6 7 2 4 5 2 6 10 11 15 19 22 20 27 33 39 29 22 18 18 17 14 14 13 11 10 14 18 18 17 17 17 18 19
52 49 42 20 7 7 6 5 7 9 7 8 9 5 6 6 8 4 5 4 9 7 3 3 2 5 8 8 13 17 22 24 24 26 27 32 34 21 13 12 11 9 10 12 11 10 12 14 14 12 13 12 13 17
32 23 12 8 6 4 5 3 5 5 6 1 8 7 6 5 4 4 12 9 5 9 10 7 4 4 2 1 5 11 16 16 17 19 17 14 15 14 14 13 10 6 5 6 7 8 9 11 10 8 8 7 10 13
9 4 9 9 14 1 4 11 7 8 7 7 6 3 3 5 5 9 4 5 6 11 10 9 7 4 3 5 8 9 12 8 7 11 10 8 8 5 6 10 10 7 10 12 10 9 8 8 7 6 4 5 6 7
5 16 11 11 15 10 12 10 11 10 6 5 5 5 6 7 4 4 2 2 7 6 8 3 1 3 4 5 4 5 4 6 6 4 6 5 4 5 8 7 6 15 11 5 3 7 10 9 9 7 5 4 4 5
13 20 11 6 8 8 2 6 6 1 2 6 3 11 8 3 3 4 2 8 10 8 8 4 2 5 2 5 7 6 5 4 9 6 15 17 15 14 14 12 8 9 15 15 14 12 12 11 10 10 9 8 7 6
9 7 10 16 6 5 8 7 6 5 7 6 5 7 5 5 5 3 7 9 11 13 9 4 2 1 2 8 10 9 5 6 10 4 5 7 16 20 18 20 19 17 17 16 14 13 13 15 14 14 14 12 10 8
9 9 6 10 11 12 4 4 5 5 3 5 4 4 3 2 3 6 7 15 14 9 5 4 4 3 3 7 12 9 3 6 10 3 3 6 9 17 16 17 18 18 17 16 12 9 11 13 14 15 15 13 12 10
9 6 6 6 7 11 9 4 2 2 4 1 2 2 3 5 11 11 10 9 5 3 2 2 2 7 5 7 13 14 9 8 7 7 8 10 10 16 18 18 16 15 14 12 10 8 11 12 12 12 11 11 11 11
6 7 6 6 5 2 2 1 2 2 1 3 2 2 4 6 8 8 4 1 2 3 5 8 9 10 9 9 11 13 15 14 11 10 11 13 16 17 18 18 17 17 16 15 13 11 9 7 6 7 8 9 12 14
5 4 7 6 5 4 5 2 2 2 1 1 2 4 5 5 4 8 7 5 4 4 6 8 10 12 11 10 10 12 15 15 14 14 14 16 17 17 19 20 21 20 20 19 17 15 15 13 14 16 16 17 18 18
3 3 7 5 3 9 5 3 3 3 3 4 3 5 5 5 4 1 4 3 5 7 9 9 10 12 12 12 13 15 16 16 15 15 15 15 17 21 22 22 22 22 22 20 20 22 21 20 20 21 22 23 24 24
8 7 6 8 6 6 6 2 2 3 5 5 4 3 4 4 5 3 1 3 7 9 10 11 12 13 14 15 15 16 15 15 16 15 16 18 19 19 20 21 22 24 23 22 24 24 24 24 27 28 28 28 28 28
Wind_Direction_850mb
238 242 245 251 259 274 279 266 235 221 235 236 237 228 218 222 228 244 225 231 205 213 204 206 206 190 167 183 156 155 114 199 136 178 174 189 148 211 130 167 172 164 150 189 92 116 268 161 127 177 219 144 160 182
237 240 243 243 251 265 277 288 236 195 219 223 230 241 252 230 222 240 249 226 214 216 206 215 208 213 218 213 187 168 191 154 170 142 195 118 157 124 157 214 138 216 185 179 192 210 228 183 203 211 170 193 187 197
239 245 246 250 252 261 271 290 239 205 232 232 233 237 245 221 224 232 242 220 208 216 213 206 217 215 212 210 210 174 204 182 184 171 153 164 188 134 164 227 139 239 205 196 91 237 231 231 228 234 240 240 250 253
235 236 249 252 251 258 263 279 248 246 225 235 239 237 231 221 225 212 227 236 210 192 206 207 210 217 216 207 202 206 206 191 189 174 149 154 166 197 190 148 168 182 155 176 268 274 267 262 242 244 247 252 259 265
235 238 242 250 258 255 257 270 251 262 223 234 249 251 234 221 223 214 230 231 225 195 160 187 205 218 215 216 217 214 210 197 173 164 160 202 154 136 91 93 229 194 173 174 217 211 195 207 215 235 244 243 243 267
239 238 242 248 254 254 246 261 236 223 227 233 226 205 216 220 217 219 238 219 218 205 185 187 206 206 208 210 209 208 206 196 191 185 202 201 177 179 165 196 228 207 202 210 232 242 230 262 253 270 265 256 278 277
240 240 239 246 253 251 244 254 238 204 228 244 225 214 216 215 207 201 195 202 205 199 159 157 202 189 198 190 193 188 187 185 189 190 206 171 179 182 144 195 212 206 217 227 237 244 254 258 259 268 275 271 278 276
235 236 238 243 248 248 247 240 232 199 213 217 234 27 175 205 169 183 201 172 177 179 165 159 93 152 172 163 151 175 181 171 180 177 164 168 142 177 239 174 198 216 207 228 245 249 251 256 258 259 269 274 279 274
228 232 232 239 244 239 230 240 213 190 170 158 190 233 188 182 179 151 169 176 187 180 148 142 154 185 166 156 148 161 167 168 177 181 189 163 162 215 194 177 193 216 216 222 233 249 260 264 268 268 269 272 273 276
227 227 234 233 235 230 229 235 180 183 189 179 163 131 225 154 134 153 159 183 183 215 186 145 146 158 167 155 179 143 188 174 179 203 152 208 247 224 212 208 214 223 225 228 231 242 248 254 257 259 261 270 275 281
231 230 225 227 219 216 216 194 174 170 180 166 144 138 156 126 96 92 107 144 166 199 188 181 165 137 183 157 152 201 182 171 184 193 182 194 258 218 220 217 225 230 227 228 243 255 259 261 266 267 269 275 280 281
230 223 217 213 203 194 185 177 178 169 157 155 142 135 158 171 96 105 167 99 182 207 173 140 174 139 159 161 136 178 198 174 216 143 176 202 245 177 199 218 229 234 239 242 246 250 253 257 262 266 273 278 280 282
204 202 203 198 185 179 171 172 174 185 124 124 112 132 138 116 89 168 176 207 162 177 171 156 125 114 134 174 156 168 185 205 124 171 208 230 247 201 219 230 228 228 233 236 241 247 257 260 263 266 272 274 272 272
183 180 185 185 179 172 170 175 176 171 147 91 122 114 150 185 237 193 176 188 203 243 199 160 126 144 166 189 173 180 142 125 203 164 219 247 320 301 231 224 228 232 232 239 248 254 255 255 261 265 267 262 267 275
166 167 161 165 172 166 167 167 172 174 104 128 122 149 197 234 43 45 53 24 62 80 151 127 112 139 104 233 214 100 110 251 218 212 183 345 341 347 302 250 243 235 236 241 246 253 252 252 259 259 256 257 256 259
199 189 187 183 174 173 167 174 168 151 115 132 142 90 151 70 4 23 82 64 56 64 197 275 156 233 212 182 148 211 177 69 342 294 321 333 338 336 330 319 295 267 253 244 243 245 247 250 251 249 250 252 257 266
207 213 198 185 180 176 176 177 134 111 170 216 258 197 193 182 180 179 194 200 206 160 139 67 337 243 302 264 112 15 102 223 259 320 316 325 332 330 327 324 309 292 269 250 247 248 252 250 243 242 246 253 257 255
216 212 194 178 172 176 156 153 137 163 178 173 176 181 202 236 191 203 210 192 210 195 152 162 60 8 334 297 155 190 234 258 291 332 339 327 321 325 322 319 323 313 296 277 259 253 252 253 253 250 245 245 246 242
208 194 178 169 173 133 96 136 139 112 230 249 207 195 192 211 220 174 173 175 179 167 143 153 139 194 204 205 242 218 257 296 323 328 336 337 325 322 325 315 319 320 308 291 272 264 260 257 254 249 243 237 235 234
163 162 154 167 166 126 92 98 162 139 175 183 172 166 146 188 184 179 185 190 183 174 121 115 187 175 356 298 305 310 319 324 330 334 346 344 309 308 318 322 313 315 308 301 287 266 252 250 251 249 243 236 232 233
125 133 148 152 150 73 104 150 153 148 168 180 192 152 129 145 118 152 170 180 163 53 58 79 122 172 285 295 297 299 313 321 332 323 319 321 345 330 311 301 291 297 299 288 270 269 259 260 258 256 249 240 231 231
130 143 134 134 96 130 115 118 136 146 164 139 124 106 92 74 71 83 125 75 58 59 80 100 228 272 276 296 320 322 321 323 327 326 321 326 333 337 323 317 320 345 325 312 311 302 299 296 288 271 259 253 239 231
126 127 120 135 147 81 105 112 136 61 109 267 123 103 24 48 61 130 74 51 45 353 331 313 290 251 188 189 304 319 321 321 321 316 313 309 327 341 351 353 351 332 307 338 342 347 333 323 316 297 283 272 252 248
121 59 34 45 28 28 19 30 48 42 69 38 63 90 341 12 6 56 92 64 35 3 348 345 342 336 272 295 313 310 310 304 306 301 288 254 265 288 349 20 22 10 33 30 5 357 336 338 337 335 304 265 254 252
123 12 17 7 21 35 32 12 1 38 42 333 66 15 341 350 65 59 183 326 3 358 14 55 150 149 179 211 244 254 243 195 182 2 22 352 305 306 307 295 343 20 12 349 343 15 8 347 343 348 340 315 307 289
69 17 37 356 5 59 342 57 30 8 1 36 18 328 335 321 243 253 234 340 348 342 342 341 142 145 94 5 336 261 241 201 160 109 70 59 36 22 7 357 20 20 4 358 5 8 8 6 1 351 345 346 343 322
81 5 43 35 56 81 83 72 53 51 49 34 355 341 329 227 264 294 313 324 333 323 314 293 278 275 18 10 356 325 226 206 189 165 48 33 24 21 7 5 15 5 8 9 354 353 353 355 357 358 353 344 339 343
81 45 70 13 59 45 82 65 39 47 28 355 284 22 3 245 305 325 309 316 321 323 304 278 270 190 115 32 23 33 78 152 169 151 81 13 5 10 1 6 7 359 354 350 351 345 343 346 345 345 345 344 352 357
60 59 73 64 68 52 46 67 38 342 308 352 10 350 309 278 311 316 319 314 318 334 5 357 206 175 159 62 46 49 76 107 122 121 73 46 24 13 16 15 13 11 8 5 355 346 341 337 339 342 350 355 11 19
51 47 91 63 62 51 33 50 31 8 138 183 225 280 312 333 358 1 3 44 140 127 112 92 104 127 130 120 88 83 89 94 100 90 76 51 33 28 30 32 28 25 23 22 23 24 22 14 12 28 39 45 49 48
106 99 96 82 120 130 152 111 97 110 127 183 227 247 270 284 330 25 40 76 115 124 105 96 97 97 104 105 97 90 85 85 85 81 68 52 45 44 40 38 38 39 41 41 40 44 46 46 51 53 56 60 66 69
86 92 127 96 193 190 233 289 271 266 258 263 244 262 274 280 277 280 18 115 129 131 126 123 116 108 110 110 106 99 94 90 83 78 68 61 59 54 47 46 47 50 52 53 57 60 60 61 67 69 70 72 72 72
113 106 101 115 129 178 204 302 232 257 260 266 262 266 260 258 269 189 137 151 145 144 140 140 145 137 126 116 107 100 95 94 93 87 85 77 70 64 60 59 59 61 59 61 69 72 76 78 81 82 82 83 84 83